This demonstration page uses our WeatherBlox Daily Observations layout. Learn more.

Left ArrowRight Arrow

40.92945, -100.16068

Hourly Observations for October 3, 2018

Temp ( °F °C ) Dew Point ( °F °C ) Humidity (%) Winds ( mph kmh ) Pressure ( in mb ) Visibility ( mi km ) Precip ( " mm )
12:15 am 00:15 Mostly Cloudy 60 15.5 58 14.2 92 92 ESE 6 9 29.71 1006 10 16.0934 0 0
12:35 am 00:35 Partly Cloudy 60 15.7 58 14.2 91 91 ESE 7 11 29.68 1005 10 16.0934 0 0
12:55 am 00:55 Clear 61 16 58 14.5 91 91 SE 6 9 29.68 1005 10 16.0934 0 0
1:15 am 01:15 Clear 62 16.9 58 14.5 86 86 SSE 9 15 29.62 1003 10 16.0934 0 0
1:35 am 01:35 Clear 64 17.7 58 14.6 82 82 SSE 9 15 29.62 1003 10 16.0934 0 0
1:55 am 01:55 Clear 66 19 59 14.8 77 77 S 10 17 29.62 1003 10 16.0934 0 0
2:15 am 02:15 Clear 67 19.5 59 14.8 74 74 S 13 20 29.62 1003 10 16.0934 0 0
2:35 am 02:35 Clear 67 19.3 58 14.7 75 75 S 13 20 29.62 1003 10 16.0934 0 0
2:55 am 02:55 Clear 66 19.1 58 14.6 75 75 S 13 20 29.62 1003 10 16.0934 0 0
3:15 am 03:15 Clear 66 19 58 14.5 75 75 S 13 20 29.62 1003 10 16.0934 0 0
3:35 am 03:35 Clear 66 18.8 58 14.5 76 76 S 10 17 29.59 1002 10 16.0934 0 0
3:55 am 03:55 Clear 66 18.8 58 14.5 76 76 S 10 17 29.59 1002 10 16.0934 0 0
4:15 am 04:15 Clear 66 18.8 58 14.5 76 76 S 9 15 29.59 1002 10 16.0934 0 0
4:35 am 04:35 Clear 65 18.5 58 14.5 78 78 SSE 8 13 29.59 1002 10 16.0934 0 0
4:55 am 04:55 Clear 65 18.4 58 14.5 78 78 SSE 6 9 29.59 1002 10 16.0934 0 0
5:15 am 05:15 Clear 66 19 59 14.8 77 77 S 8 13 29.56 1001 10 16.0934 0 0
5:35 am 05:35 Clear 66 19 59 14.8 77 77 S 7 11 29.56 1001 10 16.0934 0 0
5:55 am 05:55 Clear 65 18.6 58 14.7 78 78 S 5 7 29.56 1001 10 16.0934 0 0
6:15 am 06:15 Clear 65 18.5 59 14.9 80 80 S 8 13 29.56 1001 10 16.0934 0 0
6:35 am 06:35 Clear 65 18.5 59 15 80 80 S 6 9 29.56 1001 10 16.0934 0 0
6:55 am 06:55 Clear 65 18.5 59 14.8 79 79 Calm 29.56 1001 10 16.0934 0 0
7:15 am 07:15 Clear 65 18.1 59 15 82 82 SSW 7 11 29.56 1001 10 16.0934 0 0
7:35 am 07:35 Clear 64 17.8 58 14.6 82 82 SSW 3 6 29.56 1001 10 16.0934 0 0
7:55 am 07:55 Sunny 65 18.5 59 15.1 81 81 SW 8 13 29.56 1001 10 16.0934 0 0
8:15 am 08:15 Sunny 65 18.5 59 15.2 81 81 SSW 6 9 29.56 1001 10 16.0934 0 0
8:35 am 08:35 Sunny 67 19.3 60 15.5 79 79 SSW 6 9 29.56 1001 10 16.0934 0 0
8:55 am 08:55 Sunny 68 19.8 60 15.6 77 77 SW 8 13 29.59 1002 10 16.0934 0 0
9:15 am 09:15 Sunny 69 20.5 60 15.7 74 74 SW 6 9 29.56 1001 10 16.0934 0 0
9:35 am 09:35 Sunny 70 21.2 60 15.6 71 71 WSW 6 9 29.56 1001 10 16.0934 0 0
9:55 am 09:55 Sunny 72 22.1 60 15.4 66 66 WSW 7 11 29.56 1001 10 16.0934 0 0
10:15 am 10:15 Sunny 73 22.9 60 15.3 62 62 WSW 7 11 29.56 1001 10 16.0934 0 0
10:35 am 10:35 Sunny 74 23.6 60 15.3 60 60 SW 9 15 29.53 1000 10 16.0934 0 0
10:55 am 10:55 Sunny 76 24.5 60 15.4 57 57 WSW 7 11 29.56 1001 10 16.0934 0 0
11:15 am 11:15 Sunny 78 25.4 59 14.9 52 52 WSW 7 11 29.56 1001 10 16.0934 0 0
11:35 am 11:35 Sunny 80 26.5 59 15.1 50 50 W 7 11 29.56 1001 10 16.0934 0 0
11:55 am 11:55 Sunny 82 27.9 57 14 43 43 W 9 15 29.53 1000 10 16.0934 0 0
12:15 pm 12:15 Sunny 85 29.6 55 12.6 35 35 W 10 17 29.53 1000 10 16.0934 0 0
12:35 pm 12:35 Sunny 88 31.3 51 10.8 28 28 W 20 31 29.5 999 10 16.0934 0 0
12:55 pm 12:55 Sunny 89 31.6 49 9.6 26 26 WNW 25 41 29.5 999 10 16.0934 0 0
1:15 pm 13:15 Sunny 89 31.9 48 9.1 24 24 WNW 22 35 29.5 999 10 16.0934 0 0
1:35 pm 13:35 Sunny 89 31.9 49 9.2 24 24 W 22 35 29.5 999 10 16.0934 0 0
1:55 pm 13:55 Sunny 90 32.3 49 9.4 24 24 WNW 22 35 29.5 999 10 16.0934 0 0
2:15 pm 14:15 Sunny 91 32.5 48 8.7 23 23 WNW 17 28 29.5 999 10 16.0934 0 0
2:35 pm 14:35 Sunny 92 33.3 47 8.2 21 21 WNW 22 35 29.5 999 7 11.26538 0 0
2:55 pm 14:55 Sunny 92 33.3 44 6.7 19 19 WNW 24 39 29.5 999 7 11.26538 0 0
3:15 pm 15:15 Sunny 92 33.3 44 6.4 19 19 WNW 24 39 29.5 999 10 16.0934 0 0
3:35 pm 15:35 Sunny 92 33.3 43 6.1 18 18 WNW 28 44 29.5 999 10 16.0934 0 0
3:55 pm 15:55 Sunny 92 33.6 42 5.8 18 18 NW 23 37 29.5 999 10 16.0934 0 0
4:15 pm 16:15 Sunny 92 33.3 44 6.4 19 19 NW 22 35 29.53 1000 10 16.0934 0 0
4:35 pm 16:35 Sunny 91 33 43 6.1 19 19 NNW 16 26 29.53 1000 10 16.0934 0 0
4:55 pm 16:55 Hazy 84 28.7 52 11.1 34 34 N 29 46 29.59 1002 5 8.0467 0 0
5:15 pm 17:15 Sunny 78 25.5 51 10.7 39 39 N 28 44 29.68 1005 7 11.26538 0 0
5:35 pm 17:35 Sunny 75 23.7 51 10.4 43 43 N 29 46 29.74 1007 7 11.26538 0 0
5:55 pm 17:55 Sunny 71 21.6 48 9.1 45 45 N 31 50 29.8 1009 10 16.0934 0 0
6:15 pm 18:15 Sunny 69 20.5 48 8.7 47 47 N 22 35 29.83 1010 7 11.26538 0 0
6:35 pm 18:35 Sunny 67 19.4 45 7.3 46 46 N 20 31 29.91 1013 10 16.0934 0 0
6:55 pm 18:55 Sunny 65 18.5 46 7.5 49 49 N 18 30 29.94 1014 10 16.0934 0 0
7:15 pm 19:15 Sunny 64 17.6 45 7 50 50 N 15 24 29.94 1014 10 16.0934 0 0
7:35 pm 19:35 Clear 63 17 40 4.5 44 44 N 18 30 29.94 1014 10 16.0934 0 0
7:55 pm 19:55 Clear 62 16.5 40 4.3 45 45 N 15 24 30 1016 10 16.0934 0 0
8:15 pm 20:15 Clear 61 15.9 39 4.1 46 46 N 9 15 30 1016 10 16.0934 0 0
8:35 pm 20:35 Clear 60 15.4 39 3.7 46 46 N 8 13 30 1016 10 16.0934 0 0
8:55 pm 20:55 Clear 60 15.3 37 2.6 43 43 N 15 24 30 1016 10 16.0934 0 0
9:15 pm 21:15 Clear 59 15 35 1.7 41 41 N 14 22 30 1016 10 16.0934 0 0
9:35 pm 21:35 Clear 58 14.5 36 2.1 43 43 NNE 17 28 30 1016 10 16.0934 0 0
9:55 pm 21:55 Clear 57 13.8 36 2.3 46 46 N 17 28 30 1016 10 16.0934 0 0
10:15 pm 22:15 Clear 56 13.2 37 2.5 49 49 N 20 31 30.06 1018 10 16.0934 0 0
10:35 pm 22:35 Clear 55 12.5 37 2.8 52 52 NNE 17 28 30.06 1018 10 16.0934 0 0
10:55 pm 22:55 Clear 53 11.4 37 2.6 55 55 NNE 23 37 30.09 1019 10 16.0934 0 0
11:15 pm 23:15 Clear 51 10.7 35 1.9 55 55 N 15 24 30.12 1020 10 16.0934 0 0
11:35 pm 23:35 Clear 50 9.9 35 1.8 57 57 N 14 22 30.15 1021 10 16.0934 0 0
11:55 pm 23:55 Clear 49 9.3 35 1.6 59 59 NNE 15 24 30.15 1021 10 16.0934 0 0

Powered by AerisWeather